Wind_Speed
41 41 41 41 40 40 40 39 39 38 38 36 34 33 32 32 33 34 35 35 35 35 35 34 34 33 32 30 29 27 26 25 24 24 24 25 27 28 29 30 31 33 34
44 44 44 43 41 41 40 40 39 38 38 36 34 32 30 30 29 30 31 31 31 30 30 30 29 28 26 25 25 24 23 22 22 22 23 25 26 27 27 28 29 30 31
48 47 46 45 43 41 40 40 39 38 37 36 34 31 29 28 27 26 27 27 27 27 27 27 26 26 24 24 23 22 21 22 23 23 24 24 24 24 25 25 25 25 25
52 51 49 47 45 43 42 41 39 38 37 35 33 31 28 26 25 24 23 22 23 24 24 25 25 25 24 23 22 21 22 22 22 22 22 23 23 22 21 20 20 21 22
56 54 52 50 48 46 44 43 40 38 36 34 32 30 27 25 23 22 21 19 19 21 23 23 23 23 23 23 22 21 21 21 21 20 20 19 18 17 17 16 17 18 20
61 59 56 54 52 49 46 44 42 38 35 33 31 29 26 24 22 21 19 19 19 19 21 22 23 23 23 22 22 21 20 19 18 17 16 15 15 15 15 15 16 17 19
66 63 61 59 56 53 49 46 43 39 35 32 30 27 25 23 20 19 18 17 17 18 18 21 22 21 20 20 20 19 17 16 15 15 14 14 13 13 13 14 15 16 18
70 69 67 64 61 56 51 47 43 39 35 32 28 26 23 21 19 17 17 15 15 15 16 18 18 18 17 18 17 16 15 13 13 13 12 12 11 11 12 13 14 16 17
72 70 66 63 59 55 51 47 43 40 35 32 28 25 22 20 18 16 14 13 14 14 14 14 15 15 15 15 14 13 12 11 11 10 9 9 9 9 10 11 12 14 15
63 59 56 54 52 50 47 46 43 40 36 32 28 24 22 19 17 15 14 13 13 14 14 13 13 13 13 13 12 11 11 9 8 8 8 8 8 8 9 9 10 12 14
47 46 46 46 46 47 47 45 43 40 36 32 28 25 22 19 17 15 13 13 13 13 13 12 12 13 12 11 11 10 9 8 8 7 7 6 6 6 7 7 8 10 11
38 39 39 40 41 43 44 44 42 40 37 33 29 25 23 19 16 14 13 12 13 13 13 13 14 13 12 11 11 10 9 8 7 6 5 5 4 4 4 5 6 7 9
37 38 39 39 38 38 41 43 43 41 38 34 30 26 23 20 17 15 14 14 14 14 14 14 13 13 12 11 11 10 9 8 7 6 5 4 3 2 2 3 5 7 9
38 37 38 37 35 35 39 43 43 40 38 35 31 27 24 21 19 18 17 17 16 15 15 14 13 12 12 11 10 9 9 8 6 6 5 4 2 1 1 2 4 7 10
38 37 35 32 31 32 38 43 43 40 38 35 30 28 25 23 21 21 20 19 18 17 16 15 13 12 11 11 10 9 9 8 7 7 6 4 3 2 0 2 5 7 10
37 34 32 29 29 31 39 43 44 40 38 36 33 30 29 26 24 22 21 20 19 17 16 14 13 12 11 11 10 10 10 9 9 8 7 5 3 2 1 3 5 8 11
34 31 28 27 27 31 39 42 41 39 39 38 35 32 30 27 25 23 22 21 19 17 15 14 13 12 11 11 11 11 11 10 10 9 7 6 4 3 2 4 6 9 12
31 28 26 24 25 31 38 40 40 41 41 39 36 34 31 29 27 24 22 21 19 17 16 14 13 12 12 11 11 11 12 12 11 10 9 7 6 5 5 6 8 10 13
26 24 23 23 27 32 37 38 40 41 42 40 37 35 33 30 28 25 23 21 19 17 16 15 14 13 12 12 12 12 13 13 13 12 11 9 9 9 9 10 11 13 15
23 21 20 23 28 32 36 37 41 42 43 41 38 35 32 29 26 24 23 21 19 17 16 15 14 14 13 13 13 14 14 14 14 14 13 12 12 12 13 14 15 16 17
20 19 20 24 28 33 36 36 40 42 43 40 37 35 32 30 28 27 25 22 20 18 16 15 15 15 14 14 14 15 15 15 16 16 15 15 16 16 17 18 18 19 20
18 20 22 26 30 34 35 37 41 42 41 39 37 36 34 31 29 27 24 22 20 18 16 15 15 15 15 16 16 15 16 16 17 17 18 18 18 19 20 21 21 22 22
20 22 25 29 31 33 36 38 40 41 40 39 36 34 32 29 27 25 23 21 19 17 16 15 15 15 15 16 16 16 16 17 17 18 19 19 20 21 22 23 23 23 23
21 25 28 31 33 35 38 39 40 39 39 38 35 33 31 29 26 24 22 20 18 16 15 15 15 15 15 16 16 16 16 16 17 18 20 20 21 22 23 24 24 24 24
25 29 31 32 34 36 38 39 39 39 38 36 33 31 29 27 25 23 21 19 17 15 14 14 14 14 14 15 15 15 16 16 17 18 20 20 21 22 23 24 24 24 25
29 32 33 33 34 36 37 37 37 36 35 34 32 30 28 26 24 22 20 18 16 15 14 14 14 14 14 14 14 15 15 15 16 18 18 19 21 22 23 23 23 24 26
Wind_Direction
306 307 308 308 310 311 313 315 315 315 314 310 305 299 293 286 281 276 272 269 267 266 265 264 264 263 262 259 258 257 255 254 254 250 247 247 248 249 248 248 245 242 239
304 305 305 305 306 307 309 312 313 314 314 312 308 303 298 291 285 280 275 269 266 263 261 261 259 256 253 251 250 246 246 246 244 242 243 246 249 252 251 248 244 242 242
301 302 302 302 303 303 305 308 310 311 313 312 308 305 301 295 289 283 277 269 263 259 257 256 252 247 245 245 243 241 240 240 240 240 243 247 249 251 249 249 248 248 249
298 298 298 298 299 300 301 303 306 307 310 310 307 305 302 297 291 286 279 270 261 253 251 250 246 242 243 240 236 235 236 235 235 237 241 244 246 248 249 249 250 253 254
294 294 294 294 295 296 298 299 300 302 305 306 305 303 301 297 292 286 277 270 258 249 248 243 241 240 237 232 232 232 234 233 234 237 239 240 243 245 248 250 254 257 259
290 290 290 290 290 291 292 292 293 295 297 300 300 300 298 294 292 284 275 265 256 252 247 241 238 236 232 229 227 230 232 232 231 233 235 238 242 246 249 254 258 261 265
286 286 286 285 285 285 285 285 286 287 289 291 292 293 293 291 286 278 269 262 254 247 243 235 232 231 229 225 221 224 225 225 228 232 236 238 242 247 253 259 264 268 271
284 284 283 282 281 279 278 276 276 277 279 281 282 284 285 284 280 275 270 258 245 239 236 229 227 224 222 217 213 213 217 222 225 230 235 238 244 251 257 263 269 272 276
283 282 280 277 275 272 270 267 265 266 268 270 271 272 273 274 273 270 264 251 235 225 221 221 218 216 214 212 208 207 210 214 219 223 227 234 243 253 263 270 274 278 283
283 281 277 274 270 265 261 258 255 255 257 259 260 260 261 263 264 260 253 240 228 218 211 207 203 199 196 195 196 198 201 203 206 212 221 231 243 253 263 273 281 287 292
282 280 276 271 268 262 253 249 245 245 247 249 249 249 249 251 253 249 241 227 214 202 194 189 186 184 184 184 186 190 191 195 202 211 222 232 245 259 273 285 294 301 307
284 282 280 275 271 262 247 239 235 236 239 239 239 238 239 240 239 233 222 210 200 192 186 183 182 181 181 182 183 186 189 195 201 208 214 224 239 258 282 303 319 327 332
286 285 284 279 273 261 241 228 223 227 230 230 229 228 228 228 224 217 209 199 189 183 180 179 181 182 183 184 186 190 194 198 202 203 204 209 217 256 299 330 346 348 349
289 288 287 280 270 254 234 221 218 221 221 221 220 219 219 218 214 208 199 190 184 181 181 182 183 184 186 189 193 196 198 199 200 199 197 196 202 227 279 354 1 1 358
291 290 287 277 265 246 227 215 212 214 212 210 212 211 211 209 207 201 194 188 184 182 182 185 186 188 192 196 199 201 201 201 202 201 199 197 197 201 280 0 2 360 357
292 290 283 271 260 238 219 209 208 207 201 200 204 204 204 205 203 197 191 187 185 185 186 188 192 197 200 202 204 205 205 204 203 201 199 199 203 210 288 354 357 356 354
288 285 277 267 251 228 211 204 202 199 195 196 198 200 201 202 199 196 192 189 188 189 190 193 198 203 206 209 210 210 209 208 207 206 205 210 221 236 276 325 340 344 347
283 278 269 258 233 216 205 200 196 193 192 193 195 197 198 197 196 195 192 190 190 191 194 198 203 208 211 214 214 214 214 213 212 214 218 226 240 257 281 307 323 332 336
276 267 259 240 220 208 200 197 192 190 189 190 193 195 195 195 194 193 192 192 194 196 199 203 208 212 216 220 220 220 220 220 221 225 230 239 254 270 285 298 310 319 327
265 255 240 221 207 200 196 192 190 188 186 187 191 192 192 192 192 193 195 196 198 201 205 210 215 219 222 226 227 227 228 228 229 234 241 249 262 275 286 294 302 309 317
250 233 215 202 197 194 192 189 187 184 184 185 188 189 190 190 191 194 196 198 201 205 211 217 222 226 229 231 233 234 235 236 237 242 249 257 265 276 285 292 297 303 309
223 207 197 189 188 188 187 185 183 182 184 185 186 189 190 191 193 195 197 200 204 209 216 223 229 233 235 236 238 240 242 242 244 249 255 262 269 276 284 290 295 299 304
202 192 184 180 181 182 182 181 180 181 182 183 185 188 189 191 193 196 199 202 207 213 221 228 233 236 239 240 242 245 247 249 251 255 260 266 272 279 285 290 294 297 301
185 178 173 172 173 175 176 177 178 180 181 183 186 187 189 192 195 198 201 204 210 216 222 228 234 238 241 244 245 248 252 256 259 262 265 270 275 281 287 291 293 296 300
168 166 165 166 168 170 172 175 177 179 182 184 186 187 190 193 197 199 202 207 213 220 225 231 236 240 242 246 248 251 256 261 265 268 270 274 279 284 288 291 294 297 300
158 158 159 162 164 167 170 173 176 179 181 183 186 187 190 194 196 200 204 210 217 224 230 236 240 241 242 244 248 253 259 265 270 273 276 279 283 286 289 292 295 298 300
Height
5770 5767 5763 5760 5756 5752 5748 5743 5738 5733 5728 5724 5719 5715 5712 5709 5707 5706 5705 5705 5706 5707 5708 5709 5710 5712 5713 5715 5717 5719 5721 5723 5724 5726 5727 5729 5730 5732 5733 5735 5736 5738 5740
5760 5757 5753 5750 5747 5743 5739 5735 5730 5725 5721 5716 5712 5707 5704 5701 5699 5697 5696 5695 5696 5697 5698 5699 5701 5703 5705 5707 5709 5711 5714 5716 5718 5719 5721 5723 5724 5726 5727 5728 5730 5731 5733
5748 5745 5743 5739 5736 5733 5730 5726 5722 5717 5713 5709 5705 5700 5696 5693 5691 5689 5687 5687 5687 5688 5690 5691 5693 5695 5698 5700 5703 5705 5707 5710 5712 5714 5716 5717 5719 5720 5721 5723 5724 5726 5728
5736 5733 5731 5728 5725 5723 5720 5717 5713 5709 5705 5701 5698 5694 5690 5687 5684 5682 5681 5680 5680 5681 5682 5684 5686 5688 5691 5694 5697 5699 5702 5704 5706 5708 5710 5712 5714 5715 5717 5718 5720 5722 5723
5721 5719 5717 5715 5713 5712 5710 5707 5705 5701 5698 5694 5691 5687 5684 5681 5679 5676 5675 5674 5674 5675 5676 5678 5681 5683 5685 5688 5691 5694 5697 5699 5701 5703 5705 5707 5709 5710 5712 5714 5715 5717 5718
5706 5704 5702 5701 5700 5699 5698 5696 5695 5692 5690 5687 5684 5681 5678 5676 5673 5671 5670 5669 5669 5670 5671 5673 5675 5678 5681 5683 5686 5689 5691 5694 5696 5698 5700 5703 5704 5706 5708 5709 5711 5712 5713
5688 5686 5685 5684 5684 5684 5684 5684 5683 5682 5681 5679 5677 5674 5672 5670 5668 5667 5666 5665 5665 5666 5667 5669 5672 5674 5677 5678 5681 5683 5686 5689 5692 5695 5697 5698 5700 5702 5703 5705 5706 5707 5707
5667 5665 5664 5664 5665 5666 5668 5669 5670 5671 5670 5670 5669 5668 5666 5665 5663 5662 5661 5661 5661 5662 5664 5666 5668 5670 5673 5675 5677 5680 5683 5686 5688 5691 5693 5695 5697 5698 5699 5700 5701 5701 5701
5642 5641 5640 5641 5643 5646 5650 5653 5655 5657 5659 5660 5660 5660 5660 5659 5658 5658 5657 5657 5658 5659 5660 5663 5665 5667 5669 5672 5675 5677 5680 5683 5685 5687 5689 5691 5693 5694 5695 5696 5696 5696 5696
5617 5617 5617 5618 5621 5625 5630 5635 5639 5643 5647 5649 5651 5652 5653 5653 5653 5653 5653 5654 5654 5656 5657 5660 5662 5665 5667 5670 5673 5675 5678 5680 5683 5685 5687 5689 5690 5691 5692 5692 5692 5692 5691
5596 5596 5596 5597 5600 5604 5610 5617 5622 5628 5633 5638 5641 5643 5645 5646 5647 5648 5649 5650 5651 5653 5655 5657 5660 5663 5666 5669 5671 5674 5676 5679 5681 5683 5684 5686 5687 5687 5688 5688 5688 5687 5686
5579 5578 5578 5578 5580 5584 5590 5597 5606 5613 5620 5626 5630 5634 5637 5640 5641 5643 5645 5646 5648 5650 5653 5656 5659 5662 5665 5667 5670 5673 5675 5677 5679 5681 5682 5683 5684 5684 5684 5684 5684 5683 5682
5564 5563 5562 5561 5562 5565 5571 5579 5589 5598 5606 5614 5620 5625 5630 5633 5636 5639 5641 5643 5645 5648 5651 5654 5657 5660 5663 5666 5668 5671 5673 5675 5677 5678 5680 5681 5681 5682 5682 5681 5681 5679 5678
5550 5548 5546 5545 5545 5548 5554 5564 5573 5583 5594 5603 5611 5617 5622 5627 5631 5634 5637 5640 5643 5646 5649 5653 5656 5659 5662 5664 5667 5669 5671 5673 5674 5676 5677 5678 5679 5679 5679 5678 5678 5676 5675
5535 5533 5531 5530 5531 5534 5540 5550 5560 5571 5583 5594 5602 5609 5616 5621 5626 5630 5633 5637 5640 5644 5647 5651 5654 5657 5660 5662 5665 5667 5669 5671 5672 5674 5675 5676 5676 5676 5676 5676 5675 5674 5672
5522 5520 5519 5518 5520 5523 5529 5539 5549 5561 5572 5584 5594 5602 5608 5614 5620 5625 5630 5633 5637 5641 5645 5648 5651 5654 5657 5660 5662 5664 5666 5668 5670 5671 5672 5673 5674 5674 5674 5673 5672 5671 5669
5508 5508 5507 5507 5509 5513 5520 5530 5541 5553 5564 5575 5586 5594 5602 5609 5615 5621 5625 5630 5634 5638 5642 5645 5648 5651 5654 5657 5659 5662 5664 5665 5667 5668 5670 5671 5671 5671 5671 5671 5669 5668 5666
5496 5496 5497 5497 5500 5506 5514 5524 5534 5546 5557 5569 5579 5588 5597 5604 5611 5617 5622 5627 5631 5635 5639 5642 5646 5649 5651 5654 5656 5658 5660 5662 5664 5665 5667 5668 5668 5668 5668 5667 5666 5665 5662
5484 5486 5487 5489 5494 5501 5510 5519 5530 5541 5553 5564 5575 5584 5592 5599 5606 5613 5619 5624 5628 5632 5636 5639 5643 5646 5648 5651 5653 5655 5657 5659 5661 5662 5663 5664 5664 5665 5664 5664 5662 5661 5659
5473 5476 5479 5483 5489 5497 5507 5516 5527 5538 5549 5560 5571 5580 5589 5597 5604 5611 5616 5621 5625 5629 5633 5636 5639 5642 5645 5647 5649 5652 5654 5655 5657 5658 5659 5660 5660 5660 5660 5659 5658 5656 5654
5464 5468 5472 5479 5486 5495 5504 5514 5524 5535 5546 5557 5568 5578 5587 5594 5601 5607 5612 5618 5622 5626 5629 5633 5636 5638 5641 5643 5645 5647 5649 5651 5652 5654 5655 5655 5655 5655 5655 5654 5652 5651 5649
5457 5462 5469 5476 5485 5494 5503 5513 5523 5534 5545 5555 5565 5574 5583 5590 5597 5604 5610 5615 5619 5623 5626 5629 5632 5634 5637 5639 5641 5643 5645 5646 5647 5648 5649 5650 5650 5650 5649 5648 5646 5645 5643
5452 5459 5467 5476 5485 5494 5503 5513 5523 5534 5544 5554 5564 5573 5581 5589 5596 5602 5607 5612 5616 5620 5623 5626 5628 5630 5633 5635 5636 5638 5639 5641 5642 5643 5644 5644 5644 5644 5643 5641 5640 5638 5636
5450 5458 5467 5476 5486 5495 5505 5515 5524 5534 5544 5554 5563 5572 5580 5587 5594 5600 5605 5609 5613 5617 5620 5622 5624 5626 5628 5630 5632 5633 5634 5635 5637 5637 5638 5638 5638 5637 5636 5635 5633 5631 5629
5450 5459 5469 5478 5488 5498 5507 5517 5526 5536 5546 5555 5563 5571 5579 5586 5592 5597 5602 5607 5610 5613 5616 5618 5620 5622 5624 5626 5627 5628 5629 5630 5631 5631 5632 5631 5631 5630 5629 5627 5626 5624 5621
5454 5463 5473 5482 5492 5501 5510 5520 5529 5538 5547 5555 5563 5571 5578 5584 5590 5595 5600 5604 5607 5610 5612 5614 5616 5618 5620 5621 5622 5624 5625 5625 5626 5626 5626 5625 5624 5623 5622 5620 5618 5616 5614